Location: Casilda
(33.0440°S, 61.1680°W)
Time: 08:58:48
(UTC-03:00)

ISS - Pass Details

Date: 20 October 2018
Orbit: 401 x 408 km, 51.6° (Epoch: 13 December)

Event Time Altitude Azimuth Distance (km) Brightness Sun altitude
Rises 21:34:24 0° 283° (WNW) 2,337 0.6 -26.3°
Reaches altitude 10° 21:36:50 10° 265° (W) 1,480 -0.2 -26.7°
Maximum altitude 21:39:24 20° 215° (SW) 1,013 -1.2 -27.1°
Enters shadow 21:39:40 20° 207° (SSW) 1,020 -1.2 -27.2°
